AXM110 WMKK-WBGG

Flight info

Callsign AXM110
Flight time N/A
Altitude 39000
Route KIMAT2D KIMAT Y344 VPK M761 ESBAL ESBAL1G
Aircraft A20N/M-SDE2E3FGHIRWXY/LB1

Departure

Time 2026-04-30 07:09
Airport Kuala Lumpur International Airport (WMKK)

Arrival

Time N/A
Airport Kuching International Airport (WBGG)
Time Latitude Longitude Altitude Speed Heading
2026-04-30 06:44 2.74869 101.71571 78 ft 0 kts 324°
2026-04-30 07:02 2.74866 101.71573 78 ft 2 kts 324°
2026-04-30 07:02 2.74852 101.71583 71 ft 2 kts 327°
2026-04-30 07:03 2.74838 101.71591 73 ft 2 kts 331°
2026-04-30 07:03 2.74823 101.71599 75 ft 2 kts 336°
2026-04-30 07:03 2.74807 101.71604 67 ft 2 kts 347°
2026-04-30 07:03 2.74791 101.71605 70 ft 2 kts 14°
2026-04-30 07:04 2.74777 101.71597 72 ft 2 kts 51°
2026-04-30 07:04 2.74773 101.71592 68 ft 0 kts 56°
2026-04-30 07:06 2.74785 101.71611 67 ft 9 kts 57°
2026-04-30 07:06 2.74835 101.71684 77 ft 15 kts 56°
2026-04-30 07:06 2.74899 101.71769 81 ft 15 kts 52°
2026-04-30 07:06 2.74951 101.71852 81 ft 13 kts 65°
2026-04-30 07:07 2.74936 101.71914 80 ft 9 kts 140°
2026-04-30 07:07 2.74874 101.71956 83 ft 13 kts 147°
2026-04-30 07:07 2.74790 101.72011 81 ft 15 kts 147°
2026-04-30 07:07 2.74758 101.72083 84 ft 10 kts 59°
2026-04-30 07:08 2.74793 101.72135 83 ft 9 kts 56°
2026-04-30 07:08 2.74842 101.72189 83 ft 7 kts 19°
2026-04-30 07:08 2.74876 101.72175 83 ft 13 kts 329°
2026-04-30 07:08 2.75128 101.72007 81 ft 75 kts 327°
2026-04-30 07:09 2.75724 101.71611 70 ft 129 kts 326°
2026-04-30 07:09 2.76604 101.71025 101 ft 168 kts 326°
2026-04-30 07:09 2.77553 101.70381 574 ft 166 kts 325°
2026-04-30 07:09 2.78548 101.69713 1107 ft 179 kts 328°
2026-04-30 07:10 2.79634 101.69040 1746 ft 188 kts 330°
2026-04-30 07:10 2.80798 101.68378 2489 ft 198 kts 331°
2026-04-30 07:10 2.82028 101.67667 3349 ft 211 kts 334°
2026-04-30 07:10 2.83424 101.67063 4001 ft 225 kts 342°
2026-04-30 07:11 2.84963 101.66619 4630 ft 236 kts 349°
2026-04-30 07:11 2.86622 101.66355 5292 ft 245 kts 356°
2026-04-30 07:11 2.88342 101.66221 5998 ft 252 kts 356°
2026-04-30 07:11 2.90099 101.65994 6695 ft 257 kts 355°
2026-04-30 07:12 2.91891 101.65912 7389 ft 259 kts
2026-04-30 07:12 2.93672 101.66205 8116 ft 261 kts 18°
2026-04-30 07:12 2.95364 101.66863 8871 ft 262 kts 28°
2026-04-30 07:12 2.96977 101.67780 9437 ft 273 kts 34°
2026-04-30 07:13 2.98617 101.68819 9955 ft 283 kts 34°
2026-04-30 07:13 3.00326 101.69884 10389 ft 298 kts 33°
2026-04-30 07:13 3.02124 101.70974 10671 ft 315 kts 32°
2026-04-30 07:13 3.04056 101.72120 11019 ft 329 kts 32°
2026-04-30 07:14 3.06049 101.73290 11517 ft 336 kts 32°
2026-04-30 07:14 3.08080 101.74474 12100 ft 340 kts 32°
2026-04-30 07:14 3.10136 101.75671 12696 ft 343 kts 32°
2026-04-30 07:14 3.12215 101.76880 13323 ft 346 kts 32°
2026-04-30 07:15 3.14309 101.78098 13910 ft 349 kts 32°
2026-04-30 07:15 3.16342 101.79448 14420 ft 352 kts 41°
2026-04-30 07:15 3.18023 101.81225 14936 ft 354 kts 53°
2026-04-30 07:15 3.19457 101.83237 15469 ft 357 kts 56°
2026-04-30 07:16 3.20849 101.85307 16025 ft 359 kts 57°
2026-04-30 07:16 3.22243 101.87391 16577 ft 362 kts 57°
2026-04-30 07:16 3.23627 101.89475 17095 ft 366 kts 58°
2026-04-30 07:16 3.24830 101.91723 17605 ft 368 kts 68°
2026-04-30 07:17 3.25574 101.94176 18104 ft 370 kts 80°
2026-04-30 07:17 3.25767 101.96744 18515 ft 373 kts 92°
2026-04-30 07:17 3.24784 102.01870 19363 ft 378 kts 104°
2026-04-30 07:18 3.24113 102.04419 19780 ft 381 kts 104°
2026-04-30 07:18 3.23436 102.06992 20190 ft 383 kts 104°
2026-04-30 07:18 3.22762 102.09577 20610 ft 385 kts 104°
2026-04-30 07:18 3.22088 102.12181 21008 ft 388 kts 104°
2026-04-30 07:19 3.21413 102.14803 21448 ft 390 kts 104°
2026-04-30 07:19 3.20735 102.17438 21857 ft 393 kts 104°
2026-04-30 07:19 3.20055 102.20089 22275 ft 395 kts 104°
2026-04-30 07:19 3.19370 102.22763 22683 ft 398 kts 104°
2026-04-30 07:20 3.18682 102.25446 23088 ft 400 kts 104°
2026-04-30 07:20 3.17988 102.28153 23482 ft 403 kts 104°
2026-04-30 07:20 3.17294 102.30873 23804 ft 405 kts 103°
2026-04-30 07:20 3.16780 102.33652 24140 ft 407 kts 96°
2026-04-30 07:21 3.16706 102.36490 24493 ft 409 kts 86°
2026-04-30 07:21 3.17055 102.39283 24845 ft 412 kts 81°
2026-04-30 07:21 3.17575 102.42109 25200 ft 414 kts 79°
2026-04-30 07:21 3.18175 102.44929 25548 ft 416 kts 78°
2026-04-30 07:22 3.19452 102.50612 26222 ft 421 kts 78°
2026-04-30 07:22 3.20087 102.53474 26556 ft 423 kts 78°
2026-04-30 07:22 3.20715 102.56356 26880 ft 425 kts 78°
2026-04-30 07:23 3.21337 102.59253 27194 ft 427 kts 78°
2026-04-30 07:23 3.21955 102.62164 27506 ft 429 kts 78°
2026-04-30 07:23 3.22573 102.65093 27802 ft 432 kts 78°
2026-04-30 07:23 3.23195 102.68046 28098 ft 434 kts 78°
2026-04-30 07:24 3.23818 102.71005 28392 ft 436 kts 78°
2026-04-30 07:24 3.24444 102.73978 28691 ft 438 kts 78°
2026-04-30 07:24 3.25073 102.76961 28979 ft 440 kts 78°
2026-04-30 07:24 3.25707 102.79969 29252 ft 442 kts 78°
2026-04-30 07:25 3.26343 102.82984 29519 ft 444 kts 78°
2026-04-30 07:25 3.26982 102.86014 29792 ft 446 kts 78°
2026-04-30 07:25 3.27623 102.89054 30030 ft 448 kts 78°
2026-04-30 07:25 3.28260 102.92075 30247 ft 450 kts 78°
2026-04-30 07:26 3.28908 102.95145 30488 ft 451 kts 78°
2026-04-30 07:26 3.29556 102.98220 30781 ft 451 kts 78°
2026-04-30 07:26 3.30201 103.01281 31115 ft 450 kts 78°
2026-04-30 07:26 3.30846 103.04339 31454 ft 448 kts 78°
2026-04-30 07:27 3.31488 103.07390 31778 ft 447 kts 78°
2026-04-30 07:27 3.32130 103.10437 32089 ft 447 kts 78°
2026-04-30 07:27 3.32770 103.13476 32400 ft 446 kts 78°
2026-04-30 07:27 3.33410 103.16512 32710 ft 445 kts 78°
2026-04-30 07:28 3.34046 103.19536 33029 ft 444 kts 78°
2026-04-30 07:28 3.34682 103.22556 33321 ft 443 kts 78°
2026-04-30 07:28 3.35318 103.25576 33611 ft 443 kts 78°
2026-04-30 07:28 3.35952 103.28589 33893 ft 442 kts 78°
2026-04-30 07:29 3.36584 103.31594 34143 ft 441 kts 78°
2026-04-30 07:29 3.37208 103.34562 34390 ft 441 kts 78°
2026-04-30 07:29 3.37834 103.37597 34630 ft 440 kts 80°
2026-04-30 07:29 3.38168 103.40597 34847 ft 440 kts 88°
2026-04-30 07:30 3.37483 103.46663 35295 ft 440 kts 102°
2026-04-30 07:30 3.36745 103.49633 35523 ft 439 kts 104°
2026-04-30 07:30 3.35933 103.52572 35758 ft 438 kts 105°
2026-04-30 07:31 3.35084 103.55506 35969 ft 438 kts 105°
2026-04-30 07:31 3.34229 103.58426 36179 ft 437 kts 105°
2026-04-30 07:31 3.33378 103.61343 36383 ft 437 kts 105°
2026-04-30 07:31 3.32534 103.64264 36578 ft 436 kts 105°
2026-04-30 07:32 3.31698 103.67182 36778 ft 436 kts 105°
2026-04-30 07:32 3.30871 103.70092 36978 ft 435 kts 105°
2026-04-30 07:32 3.30057 103.72968 37172 ft 434 kts 105°
2026-04-30 07:32 3.29235 103.75872 37366 ft 434 kts 105°
2026-04-30 07:33 3.28418 103.78766 37543 ft 433 kts 105°
2026-04-30 07:33 3.27597 103.81669 37713 ft 433 kts 105°
2026-04-30 07:33 3.26778 103.84565 37881 ft 432 kts 105°
2026-04-30 07:33 3.25959 103.87459 38044 ft 432 kts 105°
2026-04-30 07:34 3.25141 103.90350 38215 ft 431 kts 105°
2026-04-30 07:34 3.24323 103.93238 38368 ft 431 kts 105°
2026-04-30 07:34 3.23507 103.96121 38530 ft 431 kts 105°
2026-04-30 07:35 3.22133 104.00973 38734 ft 430 kts 105°
2026-04-30 07:35 3.21318 104.03850 38840 ft 430 kts 105°
2026-04-30 07:35 3.20512 104.06694 38850 ft 430 kts 105°
2026-04-30 07:36 3.18884 104.12438 38857 ft 429 kts 105°
2026-04-30 07:36 3.17269 104.18185 38859 ft 428 kts 105°
2026-04-30 07:37 3.15700 104.23934 38859 ft 428 kts 104°
2026-04-30 07:37 3.14142 104.29684 38856 ft 428 kts 104°
2026-04-30 07:38 3.12577 104.35437 38857 ft 428 kts 105°
2026-04-30 07:38 3.10999 104.41180 38854 ft 428 kts 105°
2026-04-30 07:39 3.09415 104.46926 38856 ft 428 kts 105°
2026-04-30 07:39 3.07833 104.52668 38856 ft 428 kts 105°
2026-04-30 07:40 3.06251 104.58414 38855 ft 428 kts 105°
2026-04-30 07:40 3.04670 104.64157 38857 ft 428 kts 105°
2026-04-30 07:41 3.03088 104.69897 38852 ft 428 kts 105°
2026-04-30 07:41 3.01513 104.75603 38852 ft 428 kts 105°
2026-04-30 07:42 2.99930 104.81340 38851 ft 428 kts 105°
2026-04-30 07:42 2.98344 104.87082 38849 ft 428 kts 105°
2026-04-30 07:43 2.96760 104.92822 38852 ft 428 kts 105°
2026-04-30 07:43 2.95176 104.98558 38848 ft 428 kts 105°
2026-04-30 07:44 2.93590 105.04296 38848 ft 428 kts 105°
2026-04-30 07:44 2.92015 105.09999 38851 ft 428 kts 105°
2026-04-30 07:45 2.90431 105.15731 38850 ft 427 kts 105°
2026-04-30 07:45 2.88847 105.21461 38846 ft 427 kts 105°
2026-04-30 07:46 2.87263 105.27195 38848 ft 427 kts 105°
2026-04-30 07:46 2.85683 105.32921 38846 ft 427 kts 105°
2026-04-30 07:47 2.84104 105.38641 38845 ft 427 kts 105°
2026-04-30 07:47 2.82534 105.44326 38843 ft 427 kts 105°
2026-04-30 07:48 2.80953 105.50051 38846 ft 427 kts 105°
2026-04-30 07:48 2.79371 105.55777 38843 ft 427 kts 105°
2026-04-30 07:49 2.77790 105.61498 38847 ft 427 kts 105°
2026-04-30 07:49 2.76209 105.67222 38845 ft 427 kts 105°
2026-04-30 07:50 2.74628 105.72941 38843 ft 427 kts 105°
2026-04-30 07:50 2.73044 105.78674 38845 ft 427 kts 105°
2026-04-30 07:51 2.71473 105.84358 38845 ft 427 kts 105°
2026-04-30 07:51 2.69889 105.90085 38847 ft 427 kts 105°
2026-04-30 07:52 2.68306 105.95812 38844 ft 427 kts 105°
2026-04-30 07:52 2.66719 106.01550 38848 ft 428 kts 105°
2026-04-30 07:53 2.65135 106.07279 38849 ft 428 kts 105°
2026-04-30 07:53 2.63548 106.13013 38845 ft 428 kts 105°
2026-04-30 07:54 2.61971 106.18715 38847 ft 428 kts 105°
2026-04-30 07:54 2.60382 106.24453 38847 ft 428 kts 105°
2026-04-30 07:55 2.58793 106.30195 38846 ft 428 kts 105°
2026-04-30 07:55 2.57203 106.35939 38846 ft 429 kts 106°
2026-04-30 07:56 2.55614 106.41684 38845 ft 429 kts 106°
2026-04-30 07:56 2.54302 106.46466 38845 ft 429 kts 105°
2026-04-30 07:57 2.52731 106.52217 38844 ft 429 kts 106°
2026-04-30 07:57 2.50896 106.58907 38844 ft 429 kts 106°
2026-04-30 07:58 2.49311 106.64664 38846 ft 429 kts 106°
2026-04-30 07:58 2.47990 106.69454 38846 ft 430 kts 106°
2026-04-30 07:59 2.46405 106.75208 38850 ft 430 kts 106°
2026-04-30 07:59 2.44817 106.80971 38845 ft 430 kts 106°
2026-04-30 08:00 2.42433 106.89623 38840 ft 430 kts 106°
2026-04-30 08:00 2.40844 106.95388 38843 ft 430 kts 106°
2026-04-30 08:01 2.39264 107.01119 38842 ft 430 kts 106°
2026-04-30 08:01 2.37672 107.06891 38840 ft 431 kts 106°
2026-04-30 08:02 2.35277 107.15550 38836 ft 431 kts 106°
2026-04-30 08:03 2.32072 107.27091 38845 ft 431 kts 106°
2026-04-30 08:04 2.30470 107.32861 38836 ft 431 kts 106°
2026-04-30 08:04 2.28870 107.38625 38835 ft 431 kts 107°
2026-04-30 08:05 2.27277 107.44362 38836 ft 431 kts 107°
2026-04-30 08:05 2.25672 107.50140 38839 ft 431 kts 107°
2026-04-30 08:06 2.24069 107.55912 38836 ft 431 kts 107°
2026-04-30 08:06 2.22464 107.61686 38837 ft 431 kts 107°
2026-04-30 08:07 2.20860 107.67459 38840 ft 431 kts 107°
2026-04-30 08:07 2.19255 107.73233 38840 ft 431 kts 107°
2026-04-30 08:08 2.17654 107.78996 38843 ft 431 kts 107°
2026-04-30 08:08 2.16059 107.84731 38841 ft 430 kts 107°
2026-04-30 08:09 2.14454 107.90487 38839 ft 430 kts 107°
2026-04-30 08:09 2.12846 107.96246 38837 ft 430 kts 107°